Temperature
23 23 22 23 26 26 27 29 32 32 31 30 30 30 28 26 25 23 24 24 23 22 22 21 21 21 20 20 20 19 19 19 19 19 19 19 19 19 18 18 18 18 18 18 18 18 18 18 18
23 22 24 26 28 27 29 30 30 31 30 30 29 29 28 26 25 24 24 23 22 22 22 21 21 20 20 20 19 19 19 19 19 19 19 19 19 19 19 18 18 18 19 18 18 18 18 18 18
23 23 26 29 28 29 30 32 31 31 30 30 30 29 27 26 25 24 24 23 22 21 21 22 21 20 20 20 19 19 19 19 19 19 19 19 19 18 18 18 18 18 18 18 18 18 18 18 18
23 26 28 30 30 32 32 32 32 31 30 29 29 28 26 25 25 24 23 23 22 21 21 21 21 20 20 20 19 19 19 19 19 19 19 19 19 19 19 18 18 18 18 19 18 18 18 18 18
25 27 29 29 31 33 33 32 31 31 30 29 28 27 24 24 24 24 23 23 21 20 21 21 21 20 20 19 19 19 19 19 19 19 19 19 19 19 18 18 18 18 18 19 19 18 18 18 18
27 29 29 30 31 32 33 32 31 31 30 28 27 26 24 24 24 23 23 23 22 21 20 21 20 20 20 19 19 19 19 19 19 19 19 19 19 18 18 18 18 18 18 18 18 19 19 19 19
27 29 30 31 32 32 32 31 31 30 29 28 27 25 23 23 23 23 23 23 22 21 20 21 20 20 20 19 19 19 19 19 19 19 19 19 19 18 18 18 18 18 18 18 18 18 19 19 19
29 30 30 31 31 31 32 31 30 29 28 27 26 25 23 23 23 23 23 23 22 21 20 20 20 20 20 19 19 19 19 19 19 19 19 19 18 18 18 18 18 18 18 18 18 18 18 19 19
29 30 30 31 31 31 32 31 30 29 28 27 25 24 23 23 23 23 23 22 22 21 20 20 19 19 19 19 19 19 19 19 19 18 18 18 18 18 18 18 18 18 18 18 18 18 18 18 19
31 30 31 32 32 32 31 31 30 30 29 27 24 23 22 22 23 23 23 22 21 21 20 20 19 19 19 18 19 19 18 18 18 18 18 18 18 18 18 18 18 18 18 18 18 18 18 18 18
32 31 32 32 32 31 31 31 30 29 28 25 24 23 23 23 23 23 23 22 21 21 20 20 20 19 19 19 19 18 18 18 18 18 18 18 18 18 18 18 18 18 18 18 18 18 18 18 18
32 32 32 32 31 31 31 31 30 28 26 25 24 23 23 22 22 22 22 22 21 21 20 20 20 19 19 19 19 18 18 18 18 18 18 18 18 18 18 18 18 18 18 18 17 17 17 17 17
32 32 32 32 31 31 30 30 29 27 26 25 24 23 22 22 22 22 22 21 21 21 20 20 19 19 19 19 19 18 18 18 18 18 18 18 18 18 18 18 18 18 17 17 17 17 17 17 17
32 32 31 31 31 31 31 30 28 27 25 25 24 23 23 22 21 21 21 20 20 20 20 19 19 19 19 19 19 18 18 18 18 18 18 18 17 18 17 17 17 17 17 17 17 17 17 18 18
32 31 30 30 31 31 31 29 28 26 26 25 24 23 22 21 21 20 20 19 19 19 19 19 19 19 19 18 18 18 18 18 18 18 17 17 17 17 17 17 17 17 17 17 17 17 17 17 17
31 30 29 30 31 31 30 27 27 26 25 25 24 22 21 21 20 20 19 19 19 19 19 19 18 18 18 18 18 18 18 18 17 17 17 17 17 17 17 17 17 17 17 17 17 17 17 17 17
30 29 30 31 32 32 31 28 27 26 26 24 23 22 21 20 20 19 19 19 19 19 19 18 18 18 18 18 18 18 18 17 17 17 17 17 16 16 16 16 17 17 17 17 17 16 17 17 17
30 31 31 31 31 32 31 29 28 27 26 25 23 22 20 20 19 19 19 18 18 18 18 18 18 18 18 18 18 17 17 17 17 17 17 16 16 16 16 16 16 16 16 16 16 16 17 17 17
32 31 31 31 32 31 31 29 28 27 26 25 23 21 20 20 19 18 18 18 18 18 18 18 18 18 18 18 17 17 17 17 17 17 17 16 16 16 16 16 16 16 16 16 16 16 16 17 17
32 31 31 31 32 32 30 29 28 26 26 25 23 22 21 19 19 18 18 18 18 18 18 18 18 18 18 17 17 17 17 17 17 17 17 16 16 16 16 16 16 16 16 16 15 16 16 16 17
32 31 31 31 32 32 30 28 26 26 26 25 24 23 21 20 19 18 18 18 18 18 18 18 18 18 17 17 17 17 17 17 17 17 17 16 16 16 16 15 15 15 15 15 15 15 15 16 16
31 32 32 31 30 29 29 26 26 26 26 26 25 23 22 21 19 19 18 18 18 18 18 18 18 18 17 17 17 17 17 17 17 17 17 16 16 15 15 15 15 15 15 15 15 15 15 16 16
32 33 32 30 27 25 25 26 25 25 25 26 25 24 23 21 20 19 19 18 18 18 18 18 18 17 17 17 17 17 17 17 17 17 17 17 16 16 15 15 15 15 15 15 15 15 15 15 16
33 32 31 27 25 22 24 25 26 27 27 27 26 25 23 22 21 20 19 19 19 18 18 18 18 17 17 17 17 17 17 17 17 17 17 17 16 16 16 16 16 15 15 15 15 15 15 15 16
32 30 28 26 23 23 25 26 26 28 29 28 27 25 24 22 21 20 20 19 19 18 18 18 18 17 17 17 17 17 17 17 17 17 17 17 17 17 16 16 16 15 15 15 15 15 15 15 15
31 30 28 26 26 26 25 25 27 29 29 28 27 25 24 23 22 21 20 20 19 19 18 18 18 18 18 18 18 18 18 18 17 17 17 17 17 17 17 17 17 16 15 15 15 15 15 15 15
31 31 31 29 28 27 25 24 26 28 28 28 27 26 25 24 23 22 21 20 20 19 19 18 18 18 18 18 18 18 18 18 17 17 17 17 17 17 17 17 17 17 16 15 15 15 14 15 15
32 31 30 29 27 27 25 23 23 25 26 28 28 27 26 24 24 23 22 21 20 20 19 19 19 18 18 18 18 18 18 18 18 18 17 17 17 17 17 17 17 17 17 16 16 15 15 15 15
30 30 29 29 28 27 25 23 24 24 26 28 28 27 26 25 24 24 23 22 21 21 20 19 19 19 18 18 18 18 18 18 18 18 18 18 18 17 17 17 17 17 17 17 16 16 15 15 15
29 29 29 28 27 28 27 25 27 27 28 29 28 27 26 26 25 25 24 23 22 21 21 20 19 19 19 19 18 19 18 18 18 18 18 18 18 18 18 18 18 17 17 17 17 17 16 15 15
Wind_Speed
11 14 12 8 6 7 8 9 7 10 9 9 7 6 8 11 8 8 12 20 26 23 22 21 19 17 17 16 16 15 15 14 14 13 12 12 12 12 12 12 12 11 11 11 11 11 10 10 10
12 15 12 8 9 10 6 2 7 12 10 7 5 4 8 11 12 12 15 21 25 23 22 20 20 18 17 16 15 15 15 14 13 13 12 12 11 11 11 11 11 11 10 10 10 10 10 10 9
14 18 9 9 13 13 6 5 7 8 7 3 3 4 6 8 10 12 17 22 23 21 21 22 20 18 17 16 15 15 14 13 13 12 11 11 10 10 10 10 10 9 9 9 9 9 9 9 8
9 10 7 9 13 10 7 7 7 4 4 3 2 5 8 7 8 14 19 22 23 21 22 21 20 18 17 16 15 14 14 13 12 11 10 10 10 9 9 8 8 8 8 8 8 8 8 8 7
11 8 10 13 15 8 7 7 5 4 1 4 3 8 8 8 12 17 18 20 21 21 21 21 19 18 17 15 15 14 13 12 11 10 10 9 9 8 8 7 7 7 7 7 7 6 6 6 6
9 10 12 12 7 5 5 6 4 3 2 3 4 6 6 8 12 16 17 18 20 21 21 20 19 18 16 15 14 13 12 11 10 10 9 8 8 7 7 6 6 6 5 5 5 5 5 4 4
11 12 14 12 6 5 5 5 4 5 3 4 3 5 6 8 10 14 16 16 18 21 20 18 18 16 15 15 14 13 12 11 10 9 8 7 7 6 6 6 5 5 4 3 3 3 3 3 2
11 11 13 8 6 5 6 5 4 3 3 4 3 4 7 9 11 13 15 15 16 18 19 16 17 17 15 14 14 13 12 11 10 9 8 7 7 7 7 7 7 5 4 3 3 2 2 2 1
10 9 9 8 7 6 6 5 2 1 2 4 6 9 13 13 14 15 14 14 14 15 16 16 15 15 16 16 15 14 12 11 10 9 8 7 6 7 9 7 9 7 6 5 4 3 3 4 5
7 7 7 7 7 7 8 6 5 2 2 6 10 13 16 14 14 17 17 16 16 14 13 12 14 12 12 13 14 12 11 11 8 6 6 4 2 2 5 10 9 8 7 7 6 5 5 7 7
7 7 8 7 6 7 7 6 4 5 1 5 10 14 16 15 14 15 16 17 16 15 12 12 12 9 9 9 10 8 7 9 6 5 2 2 1 2 4 5 6 7 8 6 7 7 6 5 3
7 8 7 7 6 6 7 7 4 3 4 8 10 13 13 14 13 12 13 14 16 14 13 12 11 8 7 8 6 6 5 5 6 6 4 4 2 3 4 3 2 1 3 4 4 4 3 2 3
11 10 7 6 6 4 5 5 4 2 6 9 10 12 13 13 11 9 8 9 13 13 12 11 11 10 7 5 3 5 5 6 7 7 6 4 3 3 3 3 3 2 1 2 1 2 2 2 3
11 11 9 8 9 5 4 4 1 3 5 6 9 10 11 11 11 8 7 7 11 13 12 12 11 10 7 5 3 3 6 5 8 8 7 6 7 4 3 1 1 2 3 3 1 1 2 1 1
13 12 9 9 12 6 4 4 1 4 5 5 6 7 8 8 8 8 10 8 11 13 12 12 11 10 8 6 5 4 5 7 8 8 8 7 8 4 3 1 1 3 1 2 1 1 2 3 3
14 11 10 11 10 5 4 3 4 5 4 6 7 7 7 6 7 7 9 9 10 12 12 10 11 11 8 5 3 3 5 7 7 9 9 7 5 3 3 2 4 4 3 1 1 1 1 0 1
12 12 10 4 5 6 6 1 6 7 6 7 8 8 8 7 7 8 9 10 11 11 11 9 10 10 9 7 3 4 5 5 6 8 8 5 4 3 4 4 3 6 1 2 4 3 3 3 2
12 12 11 7 5 7 7 2 7 7 6 8 8 8 8 8 8 10 10 10 11 11 10 10 10 9 8 6 3 4 5 4 5 8 7 4 4 4 4 4 3 5 4 4 4 3 1 1 2
13 15 14 10 7 7 7 1 5 4 5 8 9 9 8 8 9 10 10 11 12 11 10 9 10 9 7 5 5 5 5 4 5 6 8 6 4 4 4 3 2 3 5 5 5 4 2 1 1
14 15 13 10 8 8 7 1 6 5 3 6 9 10 10 11 11 11 11 10 12 12 11 10 10 10 8 5 4 4 4 3 4 5 6 6 4 2 3 2 1 3 3 3 3 3 3 2 2
15 12 12 12 13 10 8 3 4 6 6 7 9 11 11 13 14 13 12 11 12 12 12 11 11 10 8 7 5 4 4 2 4 6 5 5 5 3 4 3 3 2 1 3 2 3 3 3 1
14 12 14 15 14 9 7 2 3 6 8 9 10 11 12 13 13 13 14 13 13 13 12 11 11 10 8 8 7 7 6 5 5 5 6 5 5 5 5 3 2 2 3 3 0 4 3 2 3
14 15 16 13 10 9 10 5 4 6 6 8 11 11 12 13 14 14 14 14 14 14 13 11 11 9 9 8 7 6 5 4 4 5 7 6 5 5 5 5 4 1 1 3 3 2 3 3 4
13 15 14 7 4 4 10 7 3 5 7 10 12 11 13 14 14 14 13 13 13 14 13 13 11 10 9 9 8 7 5 3 4 5 7 6 6 6 6 6 5 3 2 3 2 1 1 2 4
11 12 10 7 1 4 9 4 3 5 7 11 13 13 13 14 15 14 14 14 13 14 14 14 13 11 11 10 8 8 6 5 5 5 6 6 5 6 8 6 6 4 3 3 3 2 0 1 1
11 12 9 11 10 5 2 1 3 7 9 11 13 14 13 14 14 15 14 13 13 15 14 14 14 13 12 11 9 8 8 6 6 7 5 6 4 5 9 7 6 5 5 5 4 3 4 3 2
12 11 10 11 14 8 0 1 4 4 7 10 12 14 14 14 14 15 15 14 14 14 14 14 15 13 13 12 10 9 9 8 7 6 7 5 4 5 10 8 8 7 6 5 5 4 5 4 5
11 11 9 9 8 8 1 3 1 1 3 7 10 12 13 14 15 15 15 15 14 14 13 13 14 13 12 12 11 11 10 9 8 6 7 6 5 4 8 9 8 8 7 7 6 6 6 5 5
9 10 9 8 7 8 3 2 6 8 7 7 10 11 12 13 14 15 15 15 15 14 14 13 13 13 12 12 11 10 10 10 10 8 7 7 6 6 7 8 8 8 8 8 8 8 7 7 7
9 11 11 9 8 8 6 2 3 4 5 6 10 10 12 12 12 13 14 14 14 14 14 13 13 13 12 11 11 11 10 10 10 10 9 8 8 8 8 9 9 9 10 9 10 10 9 8 8
Wind_Direction
229 239 237 249 247 248 269 294 345 54 58 54 47 44 70 69 76 100 133 129 121 124 127 125 124 123 122 122 123 124 123 121 119 118 116 112 108 104 100 97 96 93 90 88 87 84 81 76 72
253 252 245 251 261 277 289 323 33 58 62 63 66 56 75 75 91 122 129 122 123 127 132 129 128 126 125 125 125 125 124 123 122 121 117 114 111 108 104 101 98 95 92 89 88 86 80 76 71
260 265 262 252 256 273 305 48 62 68 75 66 76 76 70 80 96 122 128 127 127 129 129 130 132 130 129 127 126 126 126 125 124 122 119 116 114 110 106 104 101 97 93 90 87 85 80 75 68
256 249 245 264 280 300 349 30 36 40 96 88 60 91 83 76 106 123 134 133 128 129 130 134 134 133 131 129 128 127 127 127 126 125 123 120 116 113 110 106 103 99 95 90 87 85 80 73 62
247 259 250 267 279 310 8 25 11 342 57 100 66 93 92 90 116 131 141 132 132 134 132 137 136 134 133 133 131 130 129 129 127 126 124 123 120 117 115 110 108 106 103 97 94 91 83 74 58
258 259 267 274 289 352 23 38 12 352 35 73 84 94 91 109 126 142 144 137 136 133 132 136 137 137 137 136 135 134 133 132 132 131 130 127 126 126 126 123 118 115 113 110 107 103 93 78 52
262 278 280 290 337 15 30 21 12 358 22 69 75 94 115 124 134 146 142 135 134 131 133 141 143 141 140 139 139 139 138 138 139 139 141 144 147 149 150 146 137 130 125 123 124 125 114 92 52
265 286 298 314 359 20 34 14 45 24 43 89 90 115 132 140 147 143 141 136 133 135 138 146 149 147 149 145 144 142 143 145 148 151 159 169 178 178 178 171 160 156 158 161 163 164 161 164 220
267 278 300 353 3 358 4 347 24 108 131 107 95 110 144 156 154 149 146 137 134 137 144 152 147 152 156 152 148 150 153 159 163 169 181 195 206 190 187 173 165 170 176 184 189 192 200 216 227
261 279 332 4 350 338 335 325 315 265 199 118 112 123 142 160 161 161 159 152 144 143 147 145 145 153 156 147 150 158 164 163 177 161 174 196 215 196 155 162 172 181 189 198 206 210 220 234 232
285 312 337 339 339 333 318 311 300 302 26 107 133 141 151 164 168 171 166 160 150 148 143 138 137 137 133 131 150 152 152 151 148 116 101 103 354 26 92 143 172 196 202 206 198 210 234 235 241
274 295 302 307 322 311 312 314 324 351 87 114 132 150 160 170 176 176 168 162 153 147 140 136 125 115 112 126 133 150 139 132 115 104 55 45 56 38 55 56 46 239 167 168 171 200 222 253 280
279 280 285 300 294 302 308 312 332 43 109 126 143 157 169 175 177 180 163 150 145 140 134 125 116 108 102 98 139 127 112 115 117 108 75 26 55 49 45 60 20 333 49 103 139 175 172 206 234
300 309 321 322 296 275 285 298 294 147 142 142 152 165 165 174 177 164 146 150 144 131 124 121 120 119 116 113 96 105 118 122 108 90 76 44 64 50 9 70 40 12 64 85 187 157 191 206 198
303 308 312 281 267 268 286 289 183 158 170 156 154 162 161 169 165 153 151 155 141 128 128 130 131 131 134 138 150 137 140 122 102 102 84 57 63 45 349 39 78 22 9 158 184 169 200 205 200
290 283 272 253 252 253 263 319 147 164 184 159 158 157 156 149 153 147 146 145 139 133 134 145 144 140 138 137 149 135 121 110 114 116 100 78 73 32 342 34 50 338 331 40 100 112 310 295 188
277 272 278 274 254 274 277 287 165 173 178 167 160 158 158 156 155 139 139 146 145 138 137 139 127 138 140 138 144 112 93 100 117 110 102 98 79 31 35 70 20 310 3 39 38 55 39 349 349
305 312 316 324 289 288 299 257 163 168 174 159 154 154 157 167 168 149 144 148 143 136 136 135 131 136 140 139 140 120 116 134 126 110 111 106 92 41 4 105 32 349 41 42 52 28 73 302 310
307 307 312 310 288 292 302 271 135 150 169 158 155 159 166 171 159 151 150 151 144 140 143 146 147 149 151 150 154 151 151 164 137 128 126 120 98 84 17 59 99 40 66 39 25 10 298 227 19
293 300 306 300 296 289 288 264 124 143 199 164 159 160 166 163 164 161 155 156 154 151 150 152 153 156 160 153 154 152 146 166 134 115 130 138 135 149 116 40 47 69 102 68 28 31 337 342 90
297 305 307 309 303 298 286 229 146 161 186 168 163 162 165 168 167 167 168 167 164 160 162 165 161 159 163 159 164 154 141 185 142 142 155 157 152 126 67 61 39 0 91 105 41 4 5 357 355
299 308 310 309 312 322 319 271 163 189 182 173 165 163 164 165 165 169 170 172 172 166 164 159 156 159 163 172 177 172 179 186 159 161 151 159 169 170 155 137 93 8 50 100 327 82 343 329 315
299 309 305 317 333 337 312 295 158 180 178 173 164 163 161 164 166 170 173 175 176 169 166 160 157 162 167 181 185 188 192 181 157 153 144 167 171 188 176 154 142 161 67 87 68 72 3 343 358
290 296 295 315 338 300 271 270 160 165 165 161 155 154 155 160 164 167 173 172 175 171 166 161 160 167 173 188 189 201 213 186 157 162 158 187 174 185 182 170 161 196 168 134 123 93 110 38 21
281 290 297 308 287 247 253 254 122 120 125 138 145 149 156 160 165 168 173 176 175 171 169 166 167 175 181 190 192 197 208 203 193 199 185 206 189 183 176 174 163 193 169 163 163 185 336 172 62
274 279 293 309 307 302 304 354 109 105 107 124 139 147 157 164 167 171 175 176 177 176 175 172 174 179 184 190 192 194 197 206 209 214 213 208 224 180 158 160 163 193 191 195 179 214 197 193 209
269 277 288 284 288 300 68 40 96 99 117 131 142 152 162 166 169 171 173 176 179 182 181 178 174 178 185 190 189 195 199 214 222 200 209 219 210 167 155 166 173 188 199 209 185 221 232 176 198
255 279 293 297 305 310 49 70 279 259 192 156 153 154 161 165 170 172 173 177 177 180 179 176 173 179 186 191 192 199 202 210 221 225 214 219 206 189 158 172 181 190 194 198 210 225 222 212 217
263 259 268 284 291 299 303 162 189 206 207 181 153 151 161 168 173 173 174 176 176 178 177 178 176 181 189 196 198 206 196 204 209 217 224 221 213 195 180 185 191 196 199 197 202 225 228 211 217
270 270 262 258 271 283 301 126 184 203 179 161 149 149 159 167 170 169 168 169 173 175 177 177 179 187 193 198 197 202 203 204 206 210 215 216 211 206 197 196 201 207 207 202 202 214 229 222 218
Height
1506 1505 1505 1507 1503 1499 1497 1484 1469 1469 1474 1479 1482 1484 1488 1494 1501 1512 1511 1513 1514 1517 1523 1527 1531 1534 1537 1539 1541 1543 1545 1547 1548 1549 1550 1551 1552 1553 1554 1555 1556 1557 1557 1558 1559 1559 1560 1560 1561
1505 1506 1508 1504 1498 1501 1490 1477 1476 1475 1480 1483 1485 1487 1489 1495 1500 1507 1511 1515 1516 1519 1524 1528 1532 1535 1538 1540 1543 1545 1546 1548 1549 1551 1552 1553 1554 1555 1556 1557 1558 1558 1559 1560 1560 1561 1562 1562 1563
1505 1506 1506 1496 1494 1493 1485 1474 1475 1477 1482 1484 1486 1489 1493 1499 1503 1508 1513 1515 1518 1521 1525 1529 1533 1536 1539 1541 1544 1546 1547 1549 1550 1552 1553 1554 1555 1556 1557 1558 1559 1560 1561 1561 1562 1563 1563 1564 1565
1506 1505 1501 1492 1488 1476 1473 1472 1475 1478 1483 1486 1488 1491 1497 1503 1505 1509 1514 1517 1519 1522 1526 1530 1534 1537 1540 1542 1545 1547 1549 1550 1552 1553 1554 1555 1556 1557 1558 1560 1560 1561 1562 1563 1563 1564 1565 1566 1566
1507 1502 1496 1492 1484 1472 1471 1474 1478 1479 1483 1486 1490 1494 1500 1505 1506 1510 1514 1518 1520 1524 1526 1531 1535 1538 1541 1543 1546 1548 1549 1551 1553 1554 1555 1556 1557 1559 1560 1560 1561 1562 1563 1564 1565 1565 1566 1567 1568
1505 1495 1495 1491 1479 1472 1472 1475 1479 1481 1484 1488 1490 1495 1502 1506 1507 1511 1515 1519 1522 1525 1527 1532 1536 1539 1542 1544 1546 1548 1550 1552 1554 1555 1556 1557 1558 1559 1560 1561 1562 1563 1564 1565 1565 1566 1567 1568 1569
1503 1493 1489 1480 1477 1475 1475 1478 1480 1483 1484 1490 1491 1498 1504 1506 1508 1511 1516 1520 1523 1526 1528 1532 1536 1539 1543 1545 1547 1549 1551 1553 1554 1556 1557 1558 1559 1560 1561 1562 1563 1563 1564 1565 1566 1566 1567 1568 1569
1498 1492 1486 1479 1479 1479 1477 1479 1482 1485 1488 1492 1493 1499 1505 1507 1509 1512 1517 1520 1524 1527 1530 1533 1537 1540 1543 1545 1548 1550 1552 1553 1555 1556 1558 1559 1560 1561 1561 1562 1563 1564 1564 1565 1566 1567 1568 1568 1569
1495 1493 1490 1481 1481 1479 1478 1480 1482 1485 1488 1491 1494 1498 1503 1508 1510 1513 1516 1521 1524 1527 1531 1535 1538 1541 1544 1546 1548 1550 1552 1554 1555 1557 1558 1559 1560 1561 1561 1562 1563 1564 1564 1565 1566 1566 1567 1568 1569
1489 1490 1484 1479 1479 1479 1480 1481 1482 1484 1486 1490 1496 1500 1503 1507 1509 1511 1516 1520 1523 1527 1531 1535 1538 1542 1545 1547 1549 1550 1553 1554 1555 1557 1558 1559 1560 1561 1562 1562 1563 1563 1563 1564 1565 1566 1567 1568 1569
1484 1483 1479 1479 1479 1480 1480 1480 1481 1483 1486 1491 1495 1500 1502 1506 1508 1511 1515 1519 1522 1526 1529 1534 1537 1541 1544 1547 1550 1551 1553 1554 1556 1557 1558 1559 1560 1561 1562 1561 1562 1562 1563 1563 1564 1565 1566 1567 1568
1483 1481 1480 1479 1479 1480 1480 1480 1481 1484 1489 1492 1495 1498 1501 1505 1507 1509 1512 1516 1521 1525 1528 1533 1537 1541 1544 1547 1550 1552 1553 1555 1556 1556 1557 1558 1559 1560 1560 1561 1561 1562 1563 1563 1563 1564 1565 1566 1567
1480 1478 1477 1478 1478 1479 1480 1480 1482 1486 1489 1492 1495 1497 1500 1503 1506 1509 1511 1513 1517 1523 1528 1532 1536 1539 1543 1547 1550 1552 1553 1555 1555 1556 1556 1558 1558 1559 1560 1560 1561 1561 1562 1562 1562 1563 1564 1565 1566
1479 1477 1478 1479 1478 1477 1478 1479 1482 1486 1489 1491 1493 1495 1497 1502 1505 1508 1509 1513 1516 1520 1526 1531 1535 1539 1542 1546 1549 1551 1553 1555 1555 1555 1556 1557 1557 1558 1559 1560 1560 1561 1561 1561 1562 1562 1563 1564 1565
1480 1479 1480 1480 1476 1474 1476 1479 1481 1486 1488 1490 1493 1495 1497 1501 1503 1507 1508 1511 1514 1518 1524 1530 1534 1538 1542 1546 1549 1551 1553 1555 1555 1555 1555 1556 1556 1557 1558 1559 1559 1560 1561 1561 1562 1562 1563 1563 1564
1481 1483 1486 1476 1472 1471 1476 1486 1482 1485 1487 1490 1492 1494 1497 1500 1503 1506 1507 1510 1514 1518 1523 1530 1534 1537 1541 1545 1549 1552 1553 1554 1555 1555 1555 1555 1556 1557 1558 1558 1558 1559 1560 1561 1561 1562 1562 1563 1564
1481 1484 1480 1473 1467 1467 1470 1479 1480 1482 1485 1488 1492 1494 1496 1499 1502 1505 1506 1510 1515 1519 1524 1529 1533 1536 1541 1544 1548 1551 1552 1554 1555 1555 1555 1555 1556 1557 1558 1557 1558 1559 1560 1560 1560 1560 1561 1562 1563
1482 1476 1472 1472 1465 1463 1466 1471 1474 1479 1483 1486 1491 1494 1496 1499 1502 1505 1508 1511 1515 1520 1524 1529 1532 1536 1540 1544 1547 1550 1552 1554 1555 1555 1555 1556 1556 1556 1557 1557 1558 1558 1559 1559 1559 1560 1561 1562 1563
1471 1472 1473 1468 1459 1461 1464 1468 1471 1477 1480 1484 1489 1493 1496 1499 1501 1504 1508 1512 1515 1519 1524 1528 1533 1536 1540 1543 1546 1549 1551 1554 1555 1555 1555 1556 1556 1557 1557 1557 1557 1558 1558 1558 1559 1559 1561 1562 1563
1469 1472 1471 1463 1457 1458 1462 1467 1470 1477 1480 1483 1487 1491 1495 1498 1501 1504 1507 1511 1514 1518 1522 1527 1532 1535 1538 1542 1546 1548 1551 1553 1554 1555 1555 1556 1556 1557 1558 1557 1558 1558 1558 1558 1559 1559 1560 1562 1563
1468 1469 1467 1465 1457 1455 1462 1473 1475 1475 1478 1482 1485 1489 1493 1497 1500 1503 1507 1510 1514 1518 1522 1526 1530 1534 1538 1541 1545 1548 1550 1552 1554 1554 1554 1555 1556 1556 1556 1557 1557 1558 1558 1558 1559 1559 1560 1562 1563
1470 1459 1459 1460 1466 1471 1470 1486 1480 1475 1475 1478 1482 1487 1491 1495 1499 1503 1506 1510 1514 1518 1521 1525 1529 1532 1536 1540 1544 1546 1549 1551 1553 1553 1554 1554 1555 1556 1556 1556 1556 1557 1558 1558 1559 1559 1560 1561 1562
1462 1456 1458 1463 1474 1487 1483 1485 1483 1474 1476 1475 1478 1483 1489 1494 1498 1501 1505 1509 1513 1517 1520 1524 1527 1531 1535 1539 1543 1545 1548 1550 1552 1553 1553 1553 1554 1555 1555 1555 1556 1556 1557 1558 1558 1558 1559 1560 1561
1455 1458 1460 1468 1483 1506 1491 1488 1484 1470 1468 1470 1474 1481 1487 1492 1496 1501 1505 1508 1512 1516 1519 1523 1526 1530 1534 1538 1541 1544 1547 1549 1550 1551 1552 1552 1553 1553 1554 1554 1555 1556 1557 1557 1557 1558 1559 1559 1560
1457 1469 1481 1488 1503 1504 1481 1480 1478 1462 1459 1465 1472 1479 1485 1490 1495 1499 1503 1507 1510 1514 1518 1521 1524 1528 1532 1536 1539 1541 1544 1546 1548 1550 1551 1551 1552 1552 1553 1554 1554 1555 1555 1556 1557 1557 1558 1559 1559
1458 1464 1484 1497 1493 1486 1483 1486 1472 1460 1461 1465 1471 1478 1483 1488 1493 1497 1501 1505 1508 1512 1516 1519 1523 1526 1530 1533 1537 1539 1542 1544 1546 1548 1549 1550 1551 1552 1552 1552 1553 1554 1554 1555 1556 1557 1557 1558 1558
1458 1459 1456 1470 1471 1480 1486 1484 1471 1464 1463 1466 1471 1476 1481 1486 1491 1495 1499 1503 1506 1510 1514 1517 1521 1524 1528 1531 1534 1537 1539 1542 1544 1546 1547 1548 1550 1550 1550 1551 1551 1552 1553 1554 1555 1555 1556 1557 1557
1449 1452 1458 1468 1483 1488 1487 1493 1492 1476 1471 1467 1470 1474 1479 1484 1488 1493 1497 1500 1504 1508 1512 1516 1519 1522 1525 1528 1531 1534 1536 1539 1541 1543 1545 1546 1548 1549 1548 1548 1549 1550 1550 1551 1552 1553 1554 1555 1555
1454 1457 1459 1461 1465 1482 1493 1498 1475 1473 1468 1467 1468 1472 1477 1481 1486 1490 1494 1498 1503 1506 1510 1514 1518 1520 1523 1526 1529 1532 1534 1536 1538 1539 1541 1543 1544 1545 1546 1546 1546 1547 1548 1549 1549 1550 1552 1552 1553
1451 1457 1458 1470 1471 1467 1474 1486 1464 1465 1462 1463 1466 1471 1475 1480 1483 1487 1492 1496 1500 1505 1508 1512 1515 1518 1521 1523 1526 1528 1531 1533 1534 1536 1537 1539 1540 1541 1542 1542 1543 1544 1545 1545 1546 1547 1548 1549 1549